[[{"header":{"parameterUnit":"m.s-1","parameterCategory":1,"la1":30.2991,"la2":30.254,"lo1":-89.0895,"lo2":-89.0444,"dy":0.0017,"dx":0.0017,"nx":28,"ny":28,"refTime":"2024-04-15T21:00:00:Z","depth":0,"parameterNumber":2,"parameterNumberName":"U-component_of_WINDS"},"data":[0,0,0,0,0,0,0,0,0,0,0,0,0,0,0,0,0,0,0,0,0,0,0,0,0,0,0,0,0,0,0,0,0,0,0,0,0,0,0,0,0,0,0,0,0,0,0,0,0,0,0,0,0,0,0,0,0,0,-2.4883,-2.4883,0,-2.4843,-2.4843,-2.4842,-2.4802,-2.4801,-2.48,-2.48,-2.4757,-2.4757,-2.4756,0,0,0,0,0,0,0,0,0,0,0,0,0,-2.4921,-2.4921,-2.4883,-2.4882,-2.4882,-2.4843,-2.4843,-2.4842,-2.4802,-2.4801,-2.48,-2.48,-2.4757,-2.4757,-2.4756,0,0,0,0,0,0,0,0,0,0,0,0,0,-2.4895,-2.492,-2.4883,-2.4857,-2.4854,-2.4844,-2.4843,-2.4842,-2.4802,-2.4801,-2.48,-2.4799,-2.4758,-2.4757,-2.4756,-2.4767,0,0,-2.4753,-2.4753,0,0,0,0,0,0,0,0,-2.4897,-2.4894,-2.4861,-2.4859,-2.4856,-2.4827,-2.4841,-2.4817,-2.4802,-2.4822,-2.48,-2.4799,-2.4781,-2.4778,-2.4772,-2.4765,-2.4763,-2.4753,-2.4752,-2.4752,-2.4752,0,0,0,0,0,0,0,-2.4899,-2.4895,-2.4867,-2.4861,-2.4858,-2.4847,-2.4842,-2.4836,-2.4806,-2.482,-2.4817,-2.4813,-2.4779,-2.4773,-2.4771,-2.4762,-2.4753,-2.4752,-2.4752,-2.4751,-2.4761,-2.4762,0,0,0,0,0,0,-2.4905,-2.4897,-2.4868,-2.4866,-2.4875,-2.4847,-2.4842,-2.4837,-2.4806,-2.4801,-2.4814,-2.4811,-2.4775,-2.4772,-2.4769,-2.478,-2.4752,-2.4751,-2.4751,-2.476,-2.4761,-2.4762,0,0,0,0,0,0,-2.4906,-2.4902,-2.487,-2.4881,-2.4876,-2.4847,-2.4842,-2.4836,-2.4831,-2.4802,-2.4796,-2.4813,-2.4775,-2.4771,-2.4768,-2.4778,-2.4751,-2.475,-2.4759,-2.4761,-2.4762,-2.4801,0,0,0,0,0,0,-2.4907,-2.4903,-2.4908,-2.4881,-2.4875,-2.487,-2.4843,-2.4836,-2.4829,-2.4826,-2.48,-2.4795,-2.4774,-2.4769,-2.4767,-2.4776,-2.4749,-2.4758,-2.476,-2.4761,-2.4799,-2.4803,-2.4807,0,0,0,0,0,-2.4908,-2.492,-2.4908,-2.4905,-2.488,-2.4871,-2.4867,-2.4843,-2.483,-2.4834,-2.4815,-2.4795,-2.4777,-2.4769,-2.4766,-2.4775,-2.4758,-2.476,-2.4761,-2.4797,-2.4802,-2.4807,0,0,0,0,0,0,-2.4947,-2.4916,-2.4902,-2.4906,-2.4891,-2.4864,-2.4868,-2.485,-2.4839,-2.4836,-2.4806,-2.4801,-2.4801,-2.4788,-2.478,-2.4784,-2.4765,-2.4766,-2.4793,-2.4798,-2.4802,-2.4805,-2.4748,0,0,0,0,0,-2.4957,-2.4952,-2.4924,-2.493,-2.4923,-2.4897,-2.4892,-2.4875,-2.4858,-2.4852,-2.4833,-2.4817,-2.4808,-2.4802,-2.4792,-2.4797,-2.479,-2.4801,-2.4806,-2.4809,-2.4811,-2.4812,-2.4816,-2.4768,-2.4768,-2.4768,0,0,-2.4975,-2.4957,-2.4956,-2.4937,-2.4924,-2.4919,-2.4892,-2.4888,-2.4884,-2.4851,-2.4847,-2.4833,-2.4813,-2.4814,-2.4814,-2.4803,-2.4822,-2.4812,-2.4815,-2.4814,-2.4814,-2.4818,-2.4822,-2.477,-2.4769,-2.4769,0,0,-2.5006,-2.4993,-2.4996,-2.4983,-2.4964,-2.4946,-2.4947,-2.4922,-2.4911,-2.4907,-2.4882,-2.4876,-2.4861,-2.4848,-2.4839,-2.4865,-2.4846,-2.4863,-2.4885,-2.4887,-2.489,-2.4894,-2.4902,-2.4906,-2.4864,-2.4864,-2.4864,0,-2.5032,-2.5024,-2.4999,-2.4997,-2.4989,-2.496,-2.4962,-2.4951,-2.4929,-2.4923,-2.4912,-2.4892,-2.4877,-2.4874,-2.488,-2.4875,-2.4874,-2.4865,-2.4892,-2.4895,-2.4898,-2.4905,-2.4909,-2.4866,-2.4866,-2.4866,-2.4866,0,-2.5056,-2.5051,-2.5056,-2.5036,-2.5028,-2.5028,-2.5003,-2.4998,-2.4982,-2.4965,-2.4961,-2.4942,-2.4927,-2.4925,-2.4909,-2.492,-2.4914,-2.4898,-2.4878,-2.4905,-2.4912,-2.4914,-2.4869,-2.4869,-2.4868,-2.4867,0,0,-2.5111,-2.5077,-2.5079,-2.507,-2.5046,-2.5041,-2.5039,-2.5025,-2.5022,-2.5008,-2.5005,-2.4992,-2.4978,-2.4968,-2.495,-2.4951,-2.4972,-2.4934,-2.4933,-2.4942,-2.4982,-2.4994,-2.4998,-2.4959,-2.496,-2.496,-2.4984,0,-2.5138,-2.5134,-2.5111,-2.5113,-2.5108,-2.508,-2.5078,-2.5063,-2.5047,-2.504,-2.5022,-2.5014,-2.4995,-2.4989,-2.4989,-2.497,-2.498,-2.4968,-2.4956,-2.4956,-2.4961,-2.5002,-2.5014,-2.5037,-2.4986,-2.4987,-2.4987,0,-2.5168,-2.5157,-2.5159,-2.5134,-2.5131,-2.5131,-2.5116,-2.5109,-2.5091,-2.5079,-2.5069,-2.5048,-2.5044,-2.5026,-2.5019,-2.5011,-2.5005,-2.4995,-2.4995,-2.4993,-2.4973,-2.5,-2.5044,-2.5048,-2.4991,-2.4991,-2.4991,0,-2.5208,-2.5192,-2.5191,-2.5184,-2.5156,-2.5156,-2.5144,-2.5125,-2.5118,-2.5105,-2.51,-2.5086,-2.5078,-2.5068,-2.5044,-2.5033,-2.504,-2.5019,-2.5029,-2.503,-2.5032,-2.5032,-2.5075,-2.5029,-2.5028,-2.5028,-2.5028,0,-2.524,-2.5242,-2.5208,-2.5208,-2.5209,-2.5183,-2.5185,-2.517,-2.5153,-2.5149,-2.5123,-2.5119,-2.5088,-2.5081,-2.5062,-2.5059,-2.5055,-2.5045,-2.504,-2.5048,-2.5049,-2.5043,-2.504,-2.5029,-2.5029,-2.5029,-2.5029,0,-2.5284,-2.5262,-2.5259,-2.5233,-2.5226,-2.5228,-2.5205,-2.5203,-2.5186,-2.518,-2.5177,-2.515,-2.5139,-2.5115,-2.5098,-2.5085,-2.5086,-2.5077,-2.5093,-2.509,-2.5101,-2.51,-2.5141,-2.5145,-2.5097,-2.5097,-2.5098,0,-2.5306,-2.5307,-2.5281,-2.5277,-2.5266,-2.5259,-2.5252,-2.5225,-2.5219,-2.5198,-2.5198,-2.5186,-2.5174,-2.5159,-2.5137,-2.5123,-2.5114,-2.5129,-2.5111,-2.5118,-2.5113,-2.5113,-2.5113,-2.5133,-2.5134,-2.5134,-2.5134,0,-2.5348,-2.5336,-2.5327,-2.5314,-2.5306,-2.5295,-2.5281,-2.5279,-2.5249,-2.5243,-2.5232,-2.5223,-2.5206,-2.5193,-2.5177,-2.5163,-2.5144,-2.514,-2.5142,-2.5149,-2.5158,-2.5153,-2.5103,-2.5139,-2.5139,-2.5139,-2.5138,-2.5138,-2.5381,-2.5381,-2.5362,-2.5353,-2.534,-2.5328,-2.5325,-2.5307,-2.5298,-2.5282,-2.5267,-2.5257,-2.5238,-2.5214,-2.5202,-2.5193,-2.5183,-2.5186,-2.5186,-2.5187,-2.519,-2.5159,-2.519,-2.519,-2.519,-2.519,-2.519,0,-2.5421,-2.5408,-2.5399,-2.5382,-2.5374,-2.5357,-2.5341,-2.5335,-2.5328,-2.5312,-2.5301,-2.5289,-2.5276,-2.5253,-2.5239,-2.5237,-2.5227,-2.5234,-2.5234,-2.5231,-2.52,-2.52,-2.5242,-2.5242,-2.5242,-2.5242,-2.5242,-2.5242,-2.5441,-2.5439,-2.5425,-2.5416,-2.5403,-2.5394,-2.5386,-2.5375,-2.5362,-2.5349,-2.5339,-2.5324,-2.5305,-2.5289,-2.5277,-2.527,-2.5266,-2.5275,-2.5266,-2.5238,-2.5233,-2.5228,-2.5228,-2.5275,-2.5275,-2.5297,-2.5297,-2.5298]},{"header":{"parameterUnit":"m.s-1","parameterCategory":1,"la1":30.2991,"la2":30.254,"lo1":-89.0895,"lo2":-89.0444,"dy":0.0017,"dx":0.0017,"nx":28,"ny":28,"refTime":"2024-04-15T21:00:00:Z","depth":0,"parameterNumber":3,"parameterNumberName":"V-component_of_WINDS"},"data":[0,0,0,0,0,0,0,0,0,0,0,0,0,0,0,0,0,0,0,0,0,0,0,0,0,0,0,0,0,0,0,0,0,0,0,0,0,0,0,0,0,0,0,0,0,0,0,0,0,0,0,0,0,0,0,0,0,0,4.7452,4.7452,0,4.7434,4.7434,4.7434,4.738,4.7378,4.7377,4.7376,4.7359,4.736,4.736,0,0,0,0,0,0,0,0,0,0,0,0,0,4.7441,4.7441,4.7452,4.7452,4.7451,4.7434,4.7434,4.7434,4.738,4.7378,4.7377,4.7376,4.7359,4.736,4.736,0,0,0,0,0,0,0,0,0,0,0,0,0,4.7437,4.7442,4.7452,4.7422,4.742,4.7434,4.7434,4.7434,4.738,4.7378,4.7377,4.7375,4.7359,4.736,4.7361,4.7403,0,0,4.7364,4.7364,0,0,0,0,0,0,0,0,4.7437,4.7437,4.7427,4.7424,4.7421,4.7407,4.7424,4.7423,4.7381,4.7395,4.7376,4.7374,4.7377,4.7376,4.7377,4.7402,4.7401,4.7364,4.7364,4.7365,4.7365,0,0,0,0,0,0,0,4.7437,4.7438,4.7445,4.7427,4.7423,4.7411,4.7408,4.7424,4.7396,4.7394,4.739,4.7388,4.7375,4.7376,4.7376,4.7401,4.7364,4.7365,4.7365,4.7366,4.7462,4.7464,0,0,0,0,0,0,4.7442,4.7438,4.7445,4.7444,4.7425,4.7412,4.741,4.7414,4.7396,4.7391,4.739,4.7386,4.7375,4.7375,4.7375,4.7424,4.7365,4.7366,4.7366,4.746,4.7462,4.7465,0,0,0,0,0,0,4.7442,4.7443,4.7446,4.744,4.744,4.7415,4.742,4.7414,4.7415,4.7393,4.7388,4.7396,4.7374,4.7374,4.7397,4.7423,4.7366,4.7367,4.7458,4.7461,4.7464,4.7523,0,0,0,0,0,0,4.7442,4.7443,4.7458,4.7441,4.744,4.7467,4.7421,4.7415,4.7417,4.7412,4.7397,4.7393,4.7372,4.7395,4.7398,4.7423,4.7368,4.7455,4.7459,4.7463,4.7518,4.7528,4.7535,0,0,0,0,0,4.7441,4.7476,4.7459,4.746,4.7458,4.7469,4.7469,4.7443,4.7419,4.7435,4.7421,4.7394,4.742,4.7398,4.74,4.7427,4.7453,4.7458,4.7462,4.7515,4.7526,4.7535,0,0,0,0,0,0,4.7496,4.7473,4.7454,4.7484,4.7479,4.746,4.7478,4.7456,4.7458,4.7453,4.7422,4.7419,4.7447,4.7439,4.7415,4.7468,4.7432,4.7437,4.7472,4.7482,4.749,4.7491,4.7369,0,0,0,0,0,4.7512,4.7522,4.7501,4.7529,4.7527,4.7504,4.7507,4.7488,4.7482,4.748,4.7467,4.7463,4.747,4.7476,4.7481,4.7517,4.7514,4.7537,4.7545,4.7552,4.7557,4.7577,4.7587,4.7479,4.7479,4.7479,0,0,4.7544,4.7532,4.7541,4.754,4.7534,4.7546,4.7502,4.7516,4.7525,4.7482,4.7503,4.7494,4.7487,4.7518,4.753,4.7512,4.7586,4.7558,4.7564,4.7564,4.7583,4.7593,4.7602,4.7482,4.7482,4.7481,0,0,4.7609,4.7601,4.7624,4.7619,4.7611,4.7595,4.7601,4.7585,4.7578,4.7599,4.7567,4.7578,4.759,4.7587,4.7587,4.7653,4.7629,4.7656,4.77,4.772,4.7729,4.7736,4.7761,4.777,4.7661,4.7661,4.7661,0,4.765,4.7666,4.7639,4.7655,4.7656,4.7618,4.7642,4.7639,4.7633,4.7635,4.7615,4.7632,4.7624,4.7654,4.767,4.7671,4.7678,4.7657,4.773,4.7737,4.7743,4.7767,4.7776,4.7665,4.7664,4.7664,4.7663,0,4.7718,4.773,4.775,4.7745,4.7748,4.7769,4.7745,4.7752,4.7734,4.7721,4.7743,4.7733,4.7737,4.7742,4.7724,4.777,4.776,4.7735,4.7699,4.7758,4.7779,4.7788,4.7669,4.7668,4.7667,4.7666,0,0,4.7816,4.7797,4.7805,4.7803,4.7792,4.7801,4.782,4.7823,4.7831,4.7828,4.7844,4.7857,4.7835,4.7835,4.7817,4.7834,4.7889,4.7808,4.7807,4.7824,4.7941,4.796,4.7971,4.7873,4.7875,4.7876,4.7942,0,4.7878,4.7909,4.7886,4.7921,4.7933,4.7898,4.7915,4.7911,4.7899,4.7908,4.7896,4.7906,4.7875,4.7875,4.7891,4.7879,4.7912,4.7874,4.7889,4.789,4.7892,4.7982,4.8001,4.8064,4.795,4.7951,4.7952,0,4.7954,4.7956,4.7993,4.7981,4.7985,4.8,4.8002,4.8011,4.8006,4.7997,4.7998,4.7975,4.7995,4.796,4.7987,4.7961,4.7966,4.7961,4.7963,4.7964,4.7925,4.7985,4.8083,4.8093,4.7965,4.7964,4.7963,0,4.8024,4.8035,4.8059,4.8058,4.8044,4.8056,4.8051,4.8044,4.8048,4.8051,4.8053,4.8058,4.8061,4.8065,4.8045,4.8021,4.8076,4.8038,4.8069,4.807,4.8082,4.8082,4.8183,4.8085,4.8085,4.8085,4.8084,0,4.8096,4.812,4.809,4.8104,4.8131,4.8105,4.8132,4.8123,4.8118,4.8131,4.8102,4.8115,4.8087,4.8098,4.8083,4.8108,4.811,4.8103,4.8099,4.8106,4.8107,4.8109,4.8105,4.8087,4.8087,4.8086,4.8086,0,4.8178,4.8158,4.8182,4.8167,4.8164,4.8185,4.8172,4.8186,4.8173,4.8191,4.8193,4.8174,4.8185,4.8166,4.8175,4.8164,4.82,4.8189,4.8202,4.8199,4.8231,4.8229,4.8338,4.8351,4.8244,4.8245,4.8246,0,4.8225,4.8243,4.823,4.8237,4.8234,4.8245,4.8249,4.8224,4.823,4.8227,4.8241,4.825,4.8256,4.8277,4.8264,4.8271,4.826,4.8298,4.8261,4.8268,4.8262,4.8261,4.8264,4.8306,4.8307,4.8308,4.8309,0,4.8312,4.8302,4.8309,4.8313,4.8319,4.8321,4.8321,4.8329,4.8303,4.8311,4.8322,4.8327,4.8337,4.8347,4.8351,4.8347,4.8325,4.832,4.8328,4.8336,4.8343,4.8341,4.8223,4.8318,4.8317,4.8316,4.8316,4.8316,4.8379,4.8394,4.8387,4.8397,4.8394,4.8395,4.8408,4.8397,4.8406,4.8412,4.8397,4.8412,4.8409,4.8412,4.8411,4.8423,4.8407,4.8418,4.8421,4.8424,4.8429,4.8341,4.8424,4.8424,4.8423,4.8423,4.8423,0,4.8465,4.846,4.8468,4.847,4.8478,4.8455,4.8454,4.8463,4.8476,4.8475,4.8481,4.8495,4.8505,4.8494,4.8502,4.8514,4.8504,4.8517,4.8516,4.8516,4.8443,4.8436,4.8525,4.8525,4.8525,4.8525,4.8525,4.8525,4.8511,4.8535,4.8525,4.8548,4.8543,4.8557,4.8559,4.8561,4.8559,4.8576,4.8584,4.8576,4.8571,4.8579,4.8588,4.8584,4.8589,4.8606,4.8599,4.8531,4.8521,4.8511,4.8505,4.8607,4.8607,4.8671,4.8672,4.8672]}]]